Location: Melbourne
(37.8170°S, 144.9670°E)
Time: 16:28:51
(UTC+10:00)

ADEOS Rocket - Visible Passes

Search period start: 26 July 2016 00:00
Search period end: 05 August 2016 00:00
Orbit: 858 x 1308 km, 98.7° (Epoch: 24 July)

Date Brightness Start Highest point End Pass type
(mag) Time Alt. Az. Time Alt. Az. Time Alt. Az.
26 Jul 5.6 04:01:20 10° NNE 04:01:49 12° NNE 04:01:49 12° NNE visible
26 Jul 5.8 18:51:19 10° SSW 18:53:40 12° SW 18:55:57 10° WSW visible
27 Jul 5.5 04:59:01 10° NNW 04:59:13 11° NNW 04:59:13 11° NNW visible
27 Jul 5.1 18:00:07 10° S 18:05:40 28° WSW 18:10:46 10° WNW visible
28 Jul 5.6 04:09:06 10° N 04:09:40 12° N 04:09:40 12° N visible
29 Jul 5.3 18:08:08 10° SSW 18:13:13 24° WSW 18:17:54 10° WNW visible
30 Jul 5.6 04:16:57 10° N 04:17:29 12° N 04:17:29 12° N visible
31 Jul 5.4 18:16:14 10° SSW 18:20:45 20° WSW 18:24:59 10° WNW visible
01 Aug 5.6 04:24:49 10° N 04:25:19 12° N 04:25:19 12° N visible
02 Aug 5.6 18:24:24 10° SSW 18:28:16 17° WSW 18:31:55 10° W visible
03 Aug6.403:04:33S03:04:33S02:46:10NEvisible
03 Aug 5.6 04:32:46 10° N 04:33:08 12° N 04:33:08 12° N visible
04 Aug 5.6 18:32:42 10° SSW 18:35:46 14° WSW 18:38:42 10° W visible
